TimeEST,TemperatureF,Dew PointF,Humidity,Sea Level PressureIn,VisibilityMPH,Wind Direction,Wind SpeedMPH,Gust SpeedMPH,PrecipitationIn,Events,Conditions,WindDirDegrees,DateUTC
12:56 AM,26.1,10.0,51,30.17,10.0,SSE,6.9,-,N/A,,Overcast,160,2013-01-19 05:56:00
1:56 AM,27.1,11.1,51,30.14,10.0,SSE,11.5,-,N/A,,Overcast,160,2013-01-19 06:56:00
2:56 AM,29.1,10.0,45,30.14,10.0,South,8.1,-,N/A,,Overcast,170,2013-01-19 07:56:00
3:56 AM,32.0,10.0,40,30.11,10.0,SSW,13.8,20.7,N/A,,Overcast,200,2013-01-19 08:56:00
4:56 AM,32.9,10.0,39,30.09,10.0,South,11.5,-,N/A,,Overcast,190,2013-01-19 09:56:00
5:56 AM,32.9,10.0,39,30.09,10.0,South,12.7,20.7,N/A,,Clear,180,2013-01-19 10:56:00
6:30 AM,30.2,12.2,47,30.04,10.0,SSE,9.2,-,N/A,,Clear,160,2013-01-19 11:30:00
6:56 AM,30.0,12.0,47,30.09,10.0,SSE,9.2,-,N/A,,Clear,160,2013-01-19 11:56:00
7:56 AM,30.0,12.0,47,30.08,10.0,SSE,9.2,-,N/A,,Clear,150,2013-01-19 12:56:00
8:56 AM,32.0,13.1,46,30.08,10.0,SSE,9.2,-,N/A,,Clear,150,2013-01-19 13:56:00
9:56 AM,34.9,14.0,42,30.06,10.0,SSE,9.2,-,N/A,,Clear,150,2013-01-19 14:56:00
10:56 AM,39.9,17.1,40,30.05,10.0,SW,13.8,-,N/A,,Clear,220,2013-01-19 15:56:00
11:56 AM,41.0,18.1,40,30.01,10.0,SW,18.4,21.9,N/A,,Partly Cloudy,220,2013-01-19 16:56:00
12:56 PM,45.0,21.0,39,29.98,10.0,SW,13.8,21.9,N/A,,Scattered Clouds,230,2013-01-19 17:56:00
1:56 PM,46.9,23.0,39,29.96,10.0,SW,17.3,21.9,N/A,,Scattered Clouds,230,2013-01-19 18:56:00
2:56 PM,47.8,22.1,36,29.94,10.0,SW,15.0,21.9,N/A,,Mostly Cloudy,220,2013-01-19 19:56:00
3:56 PM,46.9,23.0,39,29.91,10.0,SW,17.3,21.9,N/A,,Partly Cloudy,230,2013-01-19 20:56:00
4:56 PM,45.9,24.1,42,29.90,10.0,SSW,5.8,-,N/A,,Partly Cloudy,200,2013-01-19 21:56:00
5:56 PM,45.9,22.1,39,29.88,10.0,South,12.7,-,N/A,,Clear,180,2013-01-19 22:56:00
6:56 PM,43.0,21.0,42,29.86,10.0,South,11.5,-,N/A,,Clear,170,2013-01-19 23:56:00
7:56 PM,43.0,20.1,40,29.83,10.0,South,11.5,20.7,N/A,,Overcast,190,2013-01-20 00:56:00
8:56 PM,43.9,21.0,40,29.80,10.0,South,11.5,-,N/A,,Overcast,190,2013-01-20 01:56:00
9:56 PM,45.0,20.1,37,29.79,10.0,South,11.5,-,N/A,,Overcast,190,2013-01-20 02:56:00
10:56 PM,45.0,21.0,39,29.75,10.0,South,12.7,-,N/A,,Scattered Clouds,180,2013-01-20 03:56:00
11:56 PM,41.9,21.0,43,29.72,10.0,SSE,9.2,-,N/A,,Clear,150,2013-01-20 04:56:00